STARLINK-11313, 61255

Orbit data source: Space-Track

STARLINK-11313, 61255 is a payload satellite owned by SpaceX/Seattle (US) in LEO that was launched on Wed, 25 Sep 2024 UTC via an FALCON 9 launch vehicle from the Air Force Western Test Range (AFWTR). Payload-class satellites include a variety of spacecraft equipped with specific instruments for various scientific and technological missions. These include communications satellites like Starlink; space stations such as the ISS; scientific satellites like the Hubble; Earth observation satellites from companies like Planet Labs, Umbra, and HawkEye 360; GPS; miniature CubeSats for education and research; and military/defense satellites.

Loading next visibility...
Identifier
61255, 2024-175N
Orbit
LEO
Country
Flag of USUS
Related business
Manufacturer
SpaceX/Seattle
Mission
Operational Commercial Communications
Bus & Motor
STARLINK V2M, Unknown motor
Mass
730 kg wet, ~700 kg dry
Launch date (UTC)
2024-09-25 (11 months ago)
Launch vehicle
FALCON 9
Launch site
Air Force Western Test Range (AFWTR)
Object type
Payload
Rocket body
Debris
Shape & HBR
Box + 2 Pan, 14.5 m
Radar Cross Section
36.964 m², Large (>1 m²)

Expand to show TLE details & history
Last TLE update: 11 hours ago

TLE from 11 hours ago
0 STARLINK-11313
1 61255U 24175N   25241.84292054 -.00003191  00000-0 -21481-4 0  9992
2 61255  53.1593 282.0779 0001039  79.2557 280.8578 15.69717198 53235
Epoch: 2025-08-29T20:13Z
TLE epoch observation values (Epoch: 2025-08-29T20:13:48.334Z)
Latitude
-0.00002°
Longitude
0.34074°
Altitude
360.489 km
Speed
7.694 km/s
True Right ascension
18h 48m 18s
True Declination
0° 00' 00"
Sunlit
Object was in full shadow at epoch
Visualization orbit readout
Latitude
Unknown
Longitude
Unknown
Altitude
Unknown
Speed
Unknown
Apparent Right ascension
Unknown
Apparent Declination
Unknown
Sunlit
N/A
Visualization observer readout
Local Sidereal Time
22:22:10
Azimuth
Unknown
Elevation
Unknown
Doppler factor
Unknown
Orbital elements
Apogee altitude
360.667 km
Perigee altitude
359.267 km
Semi-major axis
6,738.104 km
Eccentricity
0.0001
Inclination
53.1593°
RAAN
282.0779°
Arg. of periapsis
79.2557°
True anomaly
280.84611°
Mean anomaly
280.8578°
Eccentric anomaly
280.85195°
Mean motion
3.92407 °/min
Orbital period
91.74 mins
BSTAR
-0.000021481
Loading maneuver chart data...
Computing Atmospheric mass density...
Loading historical data...
Loading historical data...
Loading historical data...
Loading historical data...
Loading historical data...
Loading historical data...
Loading historical data...

Documentation

Showing up to 5 results
|